This is the latest recevied weather packets stored in our database for station/object IZ1UQG-1. If no packets are shown the sender has not sent any weather packets the latest 10 day(s).
| Time | Temp. | Humidity | Pressure | Rain* | Wind** | Luminosity | Snow |
|---|---|---|---|---|---|---|---|
| 1777967636 | 15° C | 73% | 1014.1 hPa | 146.56 mm | - | - | - |
| 1777967336 | 15° C | 73% | 1014.1 hPa | 201.42 mm | - | - | - |
| 1777967036 | 15° C | 72% | 1014.2 hPa | 224.03 mm | - | - | - |
| 1777966736 | 15° C | 73% | 1014.2 hPa | 213.87 mm | - | - | - |
| 1777966436 | 15° C | 73% | 1014.2 hPa | 213.87 mm | - | - | - |
| 1777966136 | 15° C | 73% | 1014.1 hPa | 161.04 mm | - | - | - |
| 1777965836 | 15° C | 73% | 1014 hPa | 213.87 mm | - | - | - |
| 1777965536 | 14.44° C | 73% | 1013.9 hPa | 119.38 mm | - | - | - |
| 1777965236 | 14.44° C | 73% | 1013.8 hPa | 140.21 mm | - | - | - |
| 1777964936 | 15° C | 72% | 1013.8 hPa | 131.83 mm | - | - | - |
| 1777964636 | 14.44° C | 72% | 1013.7 hPa | 132.33 mm | - | - | - |
| 1777964336 | 14.44° C | 72% | 1013.7 hPa | 91.44 mm | - | - | - |
| 1777964036 | 14.44° C | 72% | 1013.5 hPa | 177.04 mm | - | - | - |
| 1777963736 | 15° C | 72% | 1013.7 hPa | 132.33 mm | - | - | - |
| 1777963436 | 15° C | 72% | 1013.6 hPa | 122.17 mm | - | - | - |
| 1777963136 | 15° C | 72% | 1013.6 hPa | 205.49 mm | - | - | - |
| 1777962836 | 15° C | 71% | 1013.7 hPa | 159.51 mm | - | - | - |
| 1777962536 | 15° C | 71% | 1013.6 hPa | 159.51 mm | - | - | - |
| 1777962236 | 15° C | 71% | 1013.5 hPa | 142.24 mm | - | - | - |
| 1777961936 | 15° C | 70% | 1013.6 hPa | 91.44 mm | - | - | - |
| 1777961636 | 15° C | 71% | 1013.6 hPa | 168.15 mm | - | - | - |
| 1777961336 | 15° C | 71% | 1013.5 hPa | 168.66 mm | - | - | - |
| 1777961036 | 15° C | 70% | 1013.4 hPa | 98.81 mm | - | - | - |
| 1777960736 | 15° C | 70% | 1013.3 hPa | 137.16 mm | - | - | - |
| 1777960436 | 15° C | 69% | 1013.2 hPa | 145.29 mm | - | - | - |
* Rain latest hour (hover to see other rain measurements)
** Current wind speed in m/s (hover to see current wind gust speed)